Newport News, VA

6:11 AM EDT on September 25, 2016 (GMT -0400)
Felker Army Air Field

Weather History for KFAF - July, 2013

Change the Weather History Date:

Sunday, July 14, 2013

  Actual Average Record
Temperature  
Mean Temperature 80 °F -  
Max Temperature 86 °F 86 °F 96 °F (1997)
Min Temperature 75 °F 70 °F 66 °F (2011)
Cooling Degree Days 16    
Growing Degree Days 30 (Base 50)    
Moisture  
Dew Point 74 °F    
Average Humidity 80    
Maximum Humidity 100    
Minimum Humidity 62    
Precipitation  
Precipitation 0.00 in - - ()
Sea Level Pressure  
Sea Level Pressure 30.30 in    
Wind  
Wind Speed 5 mph (ESE)    
Max Wind Speed 9 mph    
Max Gust Speed -    
Visibility 10 miles    
Events      
Averages and records for this station are not official NWS values.
T = Trace of Precipitation, MM = Missing Value Source: NWS Daily Summary

Daily Weather History Graph

Daily Weather History Graph

Search for Another Location

Airport or City:

Trip Planner

Search our weather history database for the weather conditions in past years. The results will help you decide how hot, cold, wet, or windy it might be!

Date:

Astronomy

Jul. 14, 2013 Rise Set
Actual Time 5:57 AM EDT 8:26 PM EDT
Civil Twilight 5:27 AM EDT 8:56 PM EDT
Nautical Twilight 4:50 AM EDT 9:33 PM EDT
Astronomical Twilight 4:09 AM EDT 10:14 PM EDT
Moon 12:02 PM EDT (7/14) 11:48 PM EDT (7/14)
Length of Visible Light 15h 29m
Length of Day
14h 28m
Waxing Crescent, 35% of the Moon is Illuminated
Jul 14
Waxing Crescent
Jul 15
First Quarter
Jul 22
Full
Jul 29
Last Quarter
Aug 6
New

Hourly Weather History & Observations

Time (EDT) Temp. Heat Index Dew Point Humidity Pressure Visibility Wind Dir Wind Speed Gust Speed Precip Events Conditions
12:56 AM 78.8 °F - 75.2 °F 89% 30.26 in 10.0 mi ESE 5.8 mph - N/A   Clear
1:56 AM 77.0 °F - 75.2 °F 94% 30.25 in 10.0 mi ESE 4.6 mph - N/A   Clear
2:56 AM 77.0 °F - 75.2 °F 94% 30.26 in 10.0 mi East 3.5 mph - N/A   Clear
4:56 AM 75.2 °F - 75.2 °F 100% 30.27 in 10.0 mi SE 2.3 mph - N/A   Clear
5:56 AM 75.2 °F - 73.4 °F 94% 30.28 in 10.0 mi ESE 3.5 mph - N/A   Clear
6:56 AM 75.2 °F - 75.2 °F 100% 30.29 in 10.0 mi ESE 3.5 mph - N/A   Clear
7:09 AM 77.0 °F - 75.2 °F 94% 30.30 in 10.0 mi ESE 4.6 mph - N/A   Partly Cloudy
7:56 AM 78.8 °F - 75.2 °F 89% 30.30 in 10.0 mi ESE 5.8 mph - N/A   Clear
8:37 AM 80.6 °F 87.1 °F 77.0 °F 89% 30.31 in 10.0 mi SE 8.1 mph - N/A   Mostly Cloudy
8:56 AM 80.6 °F 86.2 °F 75.2 °F 84% 30.32 in 10.0 mi South 9.2 mph - N/A   Mostly Cloudy
9:29 AM 80.6 °F 86.2 °F 75.2 °F 84% 30.32 in 10.0 mi SSE 6.9 mph - N/A   Scattered Clouds
9:56 AM 82.4 °F 89.5 °F 75.2 °F 79% 30.32 in 10.0 mi South 6.9 mph - N/A   Scattered Clouds
10:56 AM 84.2 °F 90.9 °F 73.4 °F 70% 30.33 in 10.0 mi Variable 5.8 mph - N/A   Clear
11:56 AM 84.2 °F 90.9 °F 73.4 °F 70% 30.33 in 10.0 mi South 4.6 mph - N/A   Scattered Clouds
12:56 PM 84.2 °F 88.4 °F 69.8 °F 62% 30.32 in 10.0 mi Variable 2.3 mph - N/A   Scattered Clouds
1:56 PM 84.2 °F 89.6 °F 71.6 °F 66% 30.31 in 10.0 mi South 2.3 mph - N/A   Scattered Clouds
2:18 PM 86.0 °F 95.1 °F 75.2 °F 70% 30.31 in 10.0 mi East 5.8 mph - N/A   Mostly Cloudy
2:19 PM 84.2 °F 92.3 °F 75.2 °F 74% 30.31 in 10.0 mi East 4.6 mph - N/A   Mostly Cloudy
2:56 PM 86.0 °F 93.4 °F 73.4 °F 66% 30.30 in 10.0 mi ESE 5.8 mph - N/A   Scattered Clouds
3:30 PM 84.2 °F 90.9 °F 73.4 °F 70% 30.30 in 10.0 mi South 4.6 mph - N/A   Overcast
3:32 PM 84.2 °F 92.3 °F 75.2 °F 74% 30.30 in 10.0 mi SSW 3.5 mph - N/A   Mostly Cloudy
3:56 PM 84.2 °F 90.9 °F 73.4 °F 70% 30.29 in 10.0 mi Variable 1.2 mph - N/A   Mostly Cloudy
4:56 PM 86.0 °F 91.8 °F 71.6 °F 62% 30.27 in 10.0 mi East 8.1 mph - N/A   Clear
5:56 PM 86.0 °F 91.8 °F 71.6 °F 62% 30.27 in 10.0 mi East 6.9 mph - N/A   Clear
6:56 PM 82.4 °F 86.3 °F 69.8 °F 66% 30.28 in 10.0 mi East 8.1 mph - N/A   Clear
7:56 PM 80.6 °F 85.4 °F 73.4 °F 79% 30.29 in 10.0 mi East 5.8 mph - N/A   Clear
8:56 PM 78.8 °F - 73.4 °F 83% 30.29 in 10.0 mi East 3.5 mph - N/A   Clear
9:16 PM 78.8 °F - 73.4 °F 83% 30.29 in 10.0 mi East 4.6 mph - N/A   Light Drizzle
9:31 PM 78.8 °F - 73.4 °F 83% 30.30 in 10.0 mi East 3.5 mph - N/A   Clear
9:58 PM 78.3 °F - 74.1 °F 87% 30.30 in 10.0 mi ESE 4.6 mph - 0.00 in   Clear
10:58 PM 77.0 °F - 73.6 °F 89% 30.31 in 10.0 mi SE 4.6 mph - N/A   Clear
11:58 PM 75.9 °F - 73.6 °F 92% 30.30 in 10.0 mi SE 2.3 mph - N/A   Clear